English version Home page |
Updated on May 5, 2012 |
プロフィール |
軌道要素Epoch 2001 Sept. 8.0 TT = JDT 2452160.5 T 2001 Sept. 14.73128 TT MPC q 1.3582084 (2000.0) P Q n 0.14362284 Peri. 353.37547 +0.34634205 -0.80079089 a 3.6112180 Node 75.42492 +0.88220606 +0.10090212 e 0.6238919 Incl. 30.32476 +0.31899788 +0.59038353 P 6.86 From 2017 observations 1994 June 12-2010 Feb. 11, mean residual 0".8. Nongravitational parameters A1 = +0.22, A2 = -0.0379.
|
星図
|
光度変化m1 = 7.4 + 5 logΔ + 15.0 log r
|
軌道要素はM.P.E.C. 2012-J16に掲載されたものです。
|